Weather History for Altus, OK

Change the Weather History Date:

Friday, May 24, 2013

  Actual Average (KLTS) Record (KLTS)
Temperature  
Mean Temperature 78 °F -  
Max Temperature 93 °F 85 °F 107 °F (2000)
Min Temperature 65 °F 62 °F 55 °F (2001)
Cooling Degree Days 14    
Growing Degree Days 28 (Base 50)    
Moisture  
Dew Point 63 °F    
Average Humidity 63    
Maximum Humidity 89    
Minimum Humidity 31    
Precipitation  
Precipitation 0.00 in - - ()
Sea Level Pressure  
Sea Level Pressure 30.09 in    
Wind  
Wind Speed 13 mph (SE)    
Max Wind Speed 26 mph    
Max Gust Speed 34 mph    
Visibility 10 miles    
Events      
Averages and records for this station are not official NWS values.
T = Trace of Precipitation, MM = Missing Value Source: NWS Daily Summary

Daily Weather History Graph

Daily Weather History Graph

Search for Another Location

Airport:

Trip Planner

Search our weather history database for the weather conditions in past years. The results will help you decide how hot, cold, wet, or windy it might be!

Date:

Astronomy

May. 24, 2013 Rise Set
Actual Time 6:28 AM CDT 8:40 PM CDT
Civil Twilight 5:59 AM CDT 9:08 PM CDT
Nautical Twilight 5:25 AM CDT 9:43 PM CDT
Astronomical Twilight 4:47 AM CDT 10:21 PM CDT
Moon 8:25 PM CDT (5/24) 6:00 AM CDT (5/24)
Length of Visible Light 15h 08m
Length of Day
14h 11m
Full, 100% of the Moon is Illuminated
May 24
Full
May 24
Full
May 31
Last Quarter
Jun 8
New
Jun 16
First Quarter

Hourly Weather History & Observations

Time (CDT) Temp. Heat Index Dew Point Humidity Pressure Visibility Wind Dir Wind Speed Gust Speed Precip Events Conditions
12:15 AM 74.5 °F - 64.9 °F 72% 30.07 in 10.0 mi SE 13.8 mph - N/A   Clear
12:35 AM 73.9 °F - 65.3 °F 74% 30.07 in 10.0 mi ESE 11.5 mph - N/A   Clear
12:55 AM 73.4 °F - 65.3 °F 76% 30.06 in 10.0 mi ESE 10.4 mph - N/A   Clear
1:15 AM 73.0 °F - 65.3 °F 77% 30.06 in 10.0 mi ESE 11.5 mph - N/A   Clear
1:35 AM 72.7 °F - 65.3 °F 78% 30.05 in 10.0 mi ESE 12.7 mph - N/A   Clear
1:55 AM 72.5 °F - 65.3 °F 78% 30.04 in 10.0 mi East 12.7 mph - N/A   Clear
2:15 AM 71.8 °F - 64.8 °F 78% 30.04 in 10.0 mi East 9.2 mph - N/A   Clear
2:35 AM 69.1 °F - 63.3 °F 82% 30.05 in 10.0 mi ENE 11.5 mph - N/A   Clear
2:55 AM 68.7 °F - 63.1 °F 82% 30.06 in 10.0 mi East 10.4 mph - N/A   Clear
3:15 AM 68.5 °F - 63.5 °F 84% 30.07 in 10.0 mi East 9.2 mph - N/A   Clear
3:35 AM 67.8 °F - 62.8 °F 84% 30.08 in 10.0 mi East 10.4 mph - N/A   Clear
3:55 AM 67.1 °F - 62.6 °F 85% 30.08 in 10.0 mi East 12.7 mph - N/A   Clear
4:15 AM 67.5 °F - 63.1 °F 86% 30.08 in 10.0 mi East 13.8 mph 17.3 mph N/A   Clear
4:35 AM 67.6 °F - 63.0 °F 85% 30.08 in 10.0 mi East 9.2 mph - N/A   Clear
4:55 AM 66.2 °F - 62.2 °F 87% 30.08 in 10.0 mi East 9.2 mph - N/A   Clear
5:15 AM 65.5 °F - 62.1 °F 89% 30.09 in 10.0 mi East 9.2 mph - N/A   Clear
5:35 AM 66.2 °F - 62.4 °F 88% 30.10 in 10.0 mi East 8.1 mph - N/A   Clear
5:55 AM 65.8 °F - 62.1 °F 88% 30.10 in 10.0 mi East 8.1 mph - N/A   Clear
6:15 AM 66.0 °F - 62.1 °F 87% 30.10 in 10.0 mi East 6.9 mph - N/A   Clear
6:35 AM 65.3 °F - 61.7 °F 88% 30.09 in 10.0 mi ENE 6.9 mph - N/A   Scattered Clouds
6:55 AM 65.7 °F - 61.9 °F 88% 30.10 in 10.0 mi East 6.9 mph - N/A   Scattered Clouds
7:15 AM 66.2 °F - 62.1 °F 86% 30.11 in 10.0 mi East 5.8 mph - N/A   Clear
7:35 AM 66.6 °F - 62.2 °F 86% 30.13 in 10.0 mi ENE 3.5 mph - N/A   Mostly Cloudy
7:55 AM 66.6 °F - 61.9 °F 85% 30.13 in 10.0 mi East 6.9 mph - N/A   Overcast
8:15 AM 68.0 °F - 62.4 °F 82% 30.13 in 10.0 mi ESE 8.1 mph - N/A   Overcast
8:35 AM 69.1 °F - 62.6 °F 80% 30.13 in 10.0 mi ESE 13.8 mph - N/A   Overcast
8:55 AM 70.3 °F - 63.0 °F 77% 30.14 in 10.0 mi ESE 16.1 mph - N/A   Overcast
9:15 AM 71.6 °F - 63.5 °F 76% 30.14 in 10.0 mi ESE 15.0 mph - N/A   Mostly Cloudy
9:35 AM 73.6 °F - 64.2 °F 72% 30.15 in 10.0 mi SE 13.8 mph - N/A   Mostly Cloudy
9:55 AM 74.7 °F - 64.8 °F 71% 30.15 in 10.0 mi SE 12.7 mph - N/A   Overcast
10:15 AM 75.6 °F - 65.3 °F 70% 30.14 in 10.0 mi SE 12.7 mph - N/A   Overcast
10:35 AM 77.7 °F - 66.0 °F 67% 30.14 in 10.0 mi ESE 10.4 mph - N/A   Mostly Cloudy
10:55 AM 79.0 °F - 66.4 °F 65% 30.13 in 10.0 mi SE 10.4 mph 18.4 mph N/A   Scattered Clouds
11:15 AM 80.1 °F 82.3 °F 66.7 °F 64% 30.13 in 10.0 mi SE 12.7 mph 19.6 mph N/A   Scattered Clouds
11:35 AM 82.2 °F 84.7 °F 67.1 °F 60% 30.13 in 10.0 mi SSE 13.8 mph 19.6 mph N/A   Scattered Clouds
11:55 AM 84.4 °F 86.8 °F 66.6 °F 55% 30.14 in 10.0 mi SSE 15.0 mph 19.6 mph N/A   Scattered Clouds
12:15 PM 84.7 °F 87.1 °F 66.6 °F 54% 30.13 in 10.0 mi SSE 16.1 mph 20.7 mph N/A   Scattered Clouds
12:35 PM 85.5 °F 87.9 °F 66.4 °F 53% 30.13 in 10.0 mi South 15.0 mph - N/A   Scattered Clouds
12:55 PM 86.7 °F 89.3 °F 66.4 °F 51% 30.13 in 10.0 mi SSE 13.8 mph 19.6 mph N/A   Scattered Clouds
1:15 PM 87.8 °F 89.4 °F 64.9 °F 46% 30.12 in 10.0 mi South 18.4 mph 23.0 mph N/A   Scattered Clouds
1:35 PM 89.8 °F 91.4 °F 64.2 °F 43% 30.11 in 10.0 mi SSE 17.3 mph - N/A   Clear
1:55 PM 90.1 °F 90.2 °F 61.3 °F 38% 30.09 in 10.0 mi South 13.8 mph 19.6 mph N/A   Clear
2:15 PM 90.0 °F 90.0 °F 61.3 °F 38% 30.09 in 10.0 mi SSE 16.1 mph 19.6 mph N/A   Clear
2:35 PM 90.0 °F 89.7 °F 60.1 °F 37% 30.09 in 10.0 mi SSE 12.7 mph 23.0 mph N/A   Clear
2:55 PM 91.4 °F 91.0 °F 59.9 °F 35% 30.08 in 10.0 mi SSE 17.3 mph 23.0 mph N/A   Clear
3:15 PM 90.3 °F 89.6 °F 59.2 °F 35% 30.07 in 10.0 mi SSE 16.1 mph - N/A   Clear
3:35 PM 91.6 °F 91.0 °F 59.9 °F 34% 30.06 in 10.0 mi SSE 18.4 mph 24.2 mph N/A   Clear
3:55 PM 90.9 °F 91.3 °F 61.9 °F 38% 30.05 in 10.0 mi SSE 19.6 mph 24.2 mph N/A   Clear
4:15 PM 90.0 °F 90.0 °F 61.3 °F 38% 30.04 in 10.0 mi SSE 17.3 mph 20.7 mph N/A   Clear
4:35 PM 92.8 °F 91.7 °F 58.5 °F 31% 30.03 in 10.0 mi SSE 12.7 mph 19.6 mph N/A   Clear
4:55 PM 92.7 °F 92.1 °F 59.9 °F 33% 30.04 in 10.0 mi SE 18.4 mph 25.3 mph N/A   Clear
5:15 PM 91.6 °F 91.3 °F 60.6 °F 35% 30.03 in 10.0 mi SSE 20.7 mph 25.3 mph N/A   Clear
5:35 PM 90.9 °F 90.9 °F 61.0 °F 37% 30.03 in 10.0 mi SE 18.4 mph 28.8 mph N/A   Clear
5:55 PM 89.1 °F 89.6 °F 62.6 °F 41% 30.03 in 10.0 mi SE 23.0 mph 27.6 mph N/A   Clear
6:15 PM 88.7 °F 89.1 °F 62.2 °F 41% 30.03 in 10.0 mi SSE 24.2 mph - N/A   Clear
6:35 PM 87.3 °F 88.0 °F 62.6 °F 44% 30.04 in 10.0 mi SSE 24.2 mph 31.1 mph N/A   Clear
6:55 PM 86.5 °F 87.6 °F 63.5 °F 46% 30.04 in 10.0 mi SSE 26.5 mph 32.2 mph N/A   Clear
7:15 PM 84.4 °F 86.1 °F 64.9 °F 52% 30.04 in 10.0 mi SSE 25.3 mph 34.5 mph N/A   Clear
7:35 PM 83.5 °F 85.3 °F 65.3 °F 54% 30.06 in 10.0 mi SSE 25.3 mph 31.1 mph N/A   Clear
7:55 PM 81.7 °F 83.5 °F 64.9 °F 57% 30.06 in 10.0 mi SSE 24.2 mph 31.1 mph N/A   Clear
8:15 PM 80.6 °F 82.3 °F 64.8 °F 58% 30.07 in 10.0 mi SSE 19.6 mph - N/A   Clear
8:35 PM 79.9 °F - 62.1 °F 54% 30.08 in 10.0 mi SSE 18.4 mph - N/A   Clear
8:55 PM 79.0 °F - 58.1 °F 49% 30.10 in 10.0 mi SSE 18.4 mph 25.3 mph N/A   Clear
9:15 PM 77.9 °F - 57.2 °F 49% 30.11 in 10.0 mi SSE 21.9 mph 27.6 mph N/A   Clear
9:35 PM 76.5 °F - 59.2 °F 55% 30.12 in 10.0 mi SSE 17.3 mph 27.6 mph N/A   Clear
9:55 PM 75.2 °F - 60.6 °F 60% 30.13 in 10.0 mi SSE 13.8 mph 24.2 mph N/A   Clear
10:15 PM 74.3 °F - 61.5 °F 64% 30.14 in 10.0 mi SSE 13.8 mph - N/A   Clear
10:35 PM 73.4 °F - 61.7 °F 67% 30.15 in 10.0 mi SSE 17.3 mph 21.9 mph N/A   Clear
10:55 PM 72.9 °F - 59.7 °F 63% 30.16 in 10.0 mi SSE 16.1 mph 21.9 mph N/A   Clear
11:15 PM 72.0 °F - 59.9 °F 66% 30.15 in 10.0 mi South 11.5 mph - N/A   Clear
11:35 PM 71.2 °F - 59.7 °F 67% 30.13 in 10.0 mi South 11.5 mph - N/A   Clear
11:55 PM 70.7 °F - 59.4 °F 67% 30.14 in 10.0 mi SSE 9.2 mph - N/A   Clear